Back to catalog

DELTA 1 DEB

AlivePO
NORAD 27720·DEBRIS·🇺🇸 United States

Launched Jan 22, 1965 from Cape Canaveral Space Force Station

Loading…

Next Passes (next 24 hours)

TLE

FreshSource: Space-Track

Epoch: Sep 12, 2026, 00:01 UTC

1 27720U 65004E   26255.00098328  .00000229  00000-0  30589-3 0  9994
2 27720  96.4822 100.6636 1167279 180.6199 179.3482 12.09266156525701

Track DELTA 1 DEB in real time with AllMySat

Download on the App Store